Showing default

IRIDIUM 144, 43249

Orbit data source: Space-Track

IRIDIUM 144, 43249 is a payload satellite owned by Iridium (US) in LEO that was launched on Fri, 30 Mar 2018 UTC via an FALCON 9 launch vehicle from the Air Force Western Test Range (AFWTR). Payload-class satellites include a variety of spacecraft equipped with specific instruments for various scientific and technological missions. These include communications satellites like Starlink; space stations such as the ISS; scientific satellites like the Hubble; Earth observation satellites from companies like Planet Labs, Umbra, and HawkEye 360; GPS; miniature CubeSats for education and research; and military/defense satellites.

Loading next visibility...
Identifier
43249, 2018-030A
Orbit
LEO
Country
Flag of USUS
Related business
Manufacturer
OATK SSG Gilbert
Mission
Operational Commercial Communications
Bus & Motor
ELITEBUS, Unknown motor
Mass
860 kg wet, 700 kg dry
Launch date (UTC)
2018-03-30 (8 years ago)
Launch vehicle
FALCON 9
Launch site
Air Force Western Test Range (AFWTR)
Object type
Payload
Rocket body
Debris
Shape & HBR
Trap Box + 2 Pan, 4.8 m
Radar Cross Section
10.154 m², Large (>1 m²)

Expand to show TLE details & history
Last TLE update: 9 hours ago

TLE from 9 hours ago
0 IRIDIUM 144
1 43249U 18030A   26035.39133543  .00000159  00000-0  49589-4 0  9995
2 43249  86.4007 345.9179 0002026  83.3374 276.8052 14.34218040411109
Epoch: 2026-02-04T09:23Z
TLE epoch observation values (Epoch: 2026-02-04T09:23:31.381Z)
Latitude
-0.00004°
Longitude
70.47856°
Altitude
780.546 km
Speed
7.464 km/s
True Right ascension
23h 03m 40s
True Declination
0° 00' 00"
Sunlit
Object was in daylight at epoch
Visualization orbit readout
Latitude
Unknown
Longitude
Unknown
Altitude
Unknown
Speed
Unknown
Apparent Right ascension
Unknown
Apparent Declination
Unknown
Sunlit
N/A
Visualization observer readout
Local Sidereal Time
20:15:45
Azimuth
Unknown
Elevation
Unknown
Doppler factor
Unknown
Orbital elements
Apogee altitude
776.08 km
Perigee altitude
773.181 km
Semi-major axis
7,152.768 km
Eccentricity
0.0002
Inclination
86.4007°
RAAN
345.9179°
Arg. of periapsis
83.3374°
True anomaly
276.78215°
Mean anomaly
276.8052°
Eccentric anomaly
276.79367°
Mean motion
3.58783 °/min
Orbital period
100.34 mins
BSTAR
0.000049589
Loading maneuver chart data...
Computing Atmospheric mass density...
Loading historical data...
Loading historical data...
Loading historical data...
Loading historical data...
Loading historical data...
Loading historical data...
Loading historical data...

Documentation

Showing up to 5 results
|